Location: De Hem
(53.1353°N, 5.6896°E)
Time: 20:43:49
(UTC+00:00)

Daily predictions for brighter satellites

Satellite Brightness Start Highest point End
(mag) Time Altitude Azimuth Time Altitude Azimuth Time Altitude Azimuth
USA 234 3.8 20:11:58 10° ENE 20:18:27 65° N 20:24:55 10° W
Terra 2.0 20:14:59 10° SSE 20:19:37 59° ENE 20:24:16 10° N
Cosmos 1656 Rocket 3.7 20:15:55 10° NNW 20:21:23 76° ENE 20:26:53 10° SE
Cosmos 1371 Rocket 4.1 20:16:34 10° NNW 20:21:57 85° ENE 20:27:19 10° SSE
ERS-1 Rocket 3.0 20:20:07 10° SSE 20:25:08 77° ENE 20:30:11 10° NNW
USA 307 0.3 20:25:51 10° W 20:26:41 40° N 20:27:34 10° ENE
ATLAS 2AS CENTAUR R/B 2.9 20:19:23 10° SW 20:26:46 89° SE 20:33:53 10° NE
Lacrosse 4 Rocket 4.0 20:25:44 10° N 20:27:33 13° NNE 20:29:22 10° NE
USA 59 Rocket 1.7 20:26:58 10° NNW 20:29:38 21° NNE 20:32:46 10° ENE
SPOT 3 Rocket 3.8 20:24:48 10° SSE 20:29:51 60° ENE 20:34:56 10° N
Cosmos 1782 3.6 20:27:16 10° SSW 20:31:00 53° WNW 20:34:47 10° N
IRS-1A Rocket 4.4 20:27:01 10° SSE 20:32:41 78° WSW 20:38:17 10° NNW
Cosmos 1943 Rocket 3.7 20:28:18 10° NW 20:33:16 32° WSW 20:38:11 10° SSW
Cosmos 1420 Rocket 4.3 20:29:09 10° NNW 20:34:27 69° WSW 20:39:43 10° SSE
Meteor 1-26 Rocket 4.4 20:28:36 10° S 20:34:37 73° E 20:40:39 10° NNE
USA 281 3.4 20:28:05 10° SE 20:34:39 72° NE 20:41:14 10° NNW
Cosmos 1743 2.6 20:34:01 10° N 20:37:38 67° ENE 20:41:14 10° SSE
Cosmos 2278 Rocket 4.5 20:33:50 10° WNW 20:37:44 19° W 20:41:36 10° SW
ISS -3.8 20:36:32 10° W 20:39:51 65° S 20:43:09 10° ESE
Cosmos 972 4.4 20:36:36 10° SSW 20:41:28 87° WNW 20:46:31 10° NNE
ARIANE 5 R/B 4.5 20:39:38 10° E 20:42:38 19° ENE 20:45:38 10° NNE
Cosmos 2279 Rocket 4.3 20:38:49 10° N 20:44:55 55° ENE 20:50:54 10° SSE
USA 245 2.3 20:42:49 10° S 20:45:03 58° WSW 20:47:17 10° NNW
Cosmos 2297 3.9 20:39:53 10° NW 20:45:40 76° WSW 20:51:22 10° SSE
Cosmos 1634 Rocket 4.1 20:39:36 10° N 20:45:58 78° E 20:52:12 10° SSE
USA 290 3.9 20:47:08 10° NW 20:49:57 28° WSW 20:52:44 10° SSW
Cosmos 1766 Rocket 3.7 20:46:16 10° NNW 20:50:43 83° W 20:55:10 10° S
Cosmos 2112 Rocket 4.0 20:45:40 10° SSW 20:50:57 70° ESE 20:56:15 10° NNE
Okean-O 4.4 20:49:01 10° SSW 20:52:50 28° W 20:56:40 10° NW
USA 229 DEB 4.0 20:46:53 10° NW 20:54:11 84° SW 21:01:46 12° SE
USA 229 4.0 20:46:58 10° NW 20:54:17 85° SW 21:01:53 12° SE
Cosmos 1726 2.3 20:53:09 10° N 20:56:12 42° ENE 20:58:35 14° SE
Spot 2 Rocket 3.6 20:54:28 10° S 20:59:29 75° WSW 21:04:34 10° NNW
Cosmos 1680 Rocket 3.6 20:55:54 10° SSW 21:01:13 87° WNW 21:06:31 10° NNE
Meteor 2-6 Rocket 4.2 20:59:45 10° S 21:05:19 67° E 21:10:46 10° NNE
USA 32 4.1 21:02:29 10° S 21:07:43 89° W 21:13:00 10° N
Tsikada Rocket 4.1 21:04:04 10° SSW 21:10:15 80° W 21:16:34 10° N
Sich 1 3.8 21:08:31 10° N 21:12:38 39° ENE 21:15:51 15° SE
USA 276 2.8 21:13:02 10° WSW 21:14:49 21° SSW 21:15:14 20° S
Cosmos 2263 4.3 21:09:28 10° NNW 21:15:09 78° WSW 21:20:00 15° SSE
MetOp-A 3.7 21:11:24 14° SSE 21:15:11 81° ENE 21:20:00 10° NNW
SL-16 R/B 2.3 21:10:57 10° SSW 21:16:38 86° WNW 21:22:22 10° NNE
MOS 1 Rocket 3.8 21:13:56 11° S 21:18:48 69° W 21:24:05 10° NNW
Lacrosse 5 3.5 21:15:28 10° WNW 21:19:22 22° SW 21:23:08 11° S
Cosmos 1536 2.8 21:15:31 10° N 21:19:23 66° ENE 21:22:15 17° SSE
Ariane Rocket 3.7 21:17:05 10° S 21:22:00 51° W 21:26:59 10° NNW
Lacrosse 5 rocket 1.3 21:18:00 10° WSW 21:22:17 86° SSE 21:26:31 10° ENE
Cosmos 1452 Rocket 3.5 21:17:17 10° NNW 21:22:35 85° ENE 21:26:45 16° SSE
Cosmos 1408 Rocket 3.6 21:18:18 10° N 21:22:46 73° ENE 21:26:12 17° SSE
Spot 1 3.9 21:19:40 10° NNE 21:23:43 69° ESE 21:27:36 11° S
Meteor 1-27 Rocket 4.3 21:22:18 15° SSE 21:26:20 40° E 21:31:28 10° NNE
Cosmos 1340 3.5 21:23:42 10° N 21:26:49 32° ENE 21:28:49 18° SE
Cosmos 2369 Rocket 2.7 21:22:20 10° NW 21:27:44 51° WSW 21:32:23 14° S
Okean 1 3.8 21:25:59 18° SSE 21:28:25 40° E 21:32:03 10° NNE
Cosmos 2221 3.5 21:24:50 10° SSW 21:29:00 46° WNW 21:33:12 10° N
USA 306 2.5 21:38:03 10° WNW 21:41:54 80° SSW 21:45:08 14° ESE
Cosmos 921 Rocket 3.5 21:39:38 10° SSW 21:44:05 64° WNW 21:48:35 10° NNE
Cosmos 2237 Rocket 4.4 21:39:16 10° W 21:44:12 29° NW 21:49:11 10° NNE
Okean 3 Rocket 4.4 21:40:08 10° NNW 21:44:20 44° W 21:48:05 12° SSW
GEOS 3 Rocket 3.6 21:40:12 10° NE 21:45:26 89° NW 21:50:35 10° SW
ATLAS 3B R/B 4.4 21:44:20 10° WNW 21:50:33 27° WSW 21:56:42 10° SSW
Landsat 5 3.5 21:47:39 10° N 21:51:26 67° WNW 21:54:55 12° SSW
Cosmos 1500 Rocket 3.6 21:50:47 10° NNW 21:55:07 75° W 21:57:58 21° S
SL-8 R/B 4.5 21:51:10 10° SSW 21:55:13 28° SSE 21:59:18 10° E
Terra 3.7 21:53:53 10° SW 21:57:35 22° W 22:01:18 10° NW
Cosmos 1733 2.9 21:54:44 10° NNW 21:58:17 89° W 22:00:07 27° S
Cosmos 1943 3.2 21:54:19 10° SSW 21:59:58 73° ESE 22:05:38 10° NE
USA 234 3.4 21:54:42 10° E 22:01:15 77° NNE 22:07:48 10° WNW
Spot 4 4.5 21:58:25 19° SE 22:01:35 46° ENE 22:06:07 10° N
ALOS 2 3.8 21:58:50 16° ESE 22:01:44 32° ENE 22:05:40 10° N
Cosmos 1805 Rocket 3.6 21:59:39 10° NNW 22:04:02 74° W 22:06:48 22° S
Cosmos 1048 Rocket 3.9 21:59:14 10° SSW 22:04:24 89° WNW 22:09:34 10° NNE
H-2A R/B 2.7 22:02:30 23° SE 22:04:53 59° ENE 22:09:03 10° N
Lacrosse 4 Rocket 2.7 22:03:18 10° NNW 22:07:00 33° NE 22:10:34 11° ESE
Cosmos 494 Rocket 4.3 22:02:34 10° SW 22:07:39 66° WNW 22:12:46 10° NNE
Meteor 1-10 Rocket 4.5 22:02:23 10° SSW 22:08:04 72° WNW 22:13:45 10° N
Cosmos 1151 Rocket 3.2 22:08:37 24° SSE 22:11:03 60° E 22:15:21 10° NNE
Cosmos 1666 Rocket 3.9 22:07:46 10° N 22:12:02 52° ENE 22:14:23 24° SE
Meteor 1-11 Rocket 4.4 22:08:30 10° NNW 22:13:54 49° W 22:18:13 16° SSW
Cosmos 1302 Rocket 4.0 22:08:45 10° NNW 22:13:59 86° WSW 22:17:13 24° SSE
IRIDIUM 114 4.4 22:08:51 10° N 22:14:06 73° E 22:17:22 23° SSE
Cosmos 1092 Rocket 4.4 22:10:25 21° SSE 22:14:26 50° E 22:20:30 10° NNE
Cosmos 1656 4.2 22:09:23 10° NNW 22:14:43 51° NE 22:19:03 15° ESE
Cosmos 1633 Rocket 3.6 22:11:24 10° N 22:15:42 48° ENE 22:18:08 23° SE
ISS -2.9 22:13:14 10° W 22:16:12 30° SSW 22:16:32 30° SSW
ATLAS 2AS CENTAUR R/B 4.1 22:11:35 10° W 22:18:26 43° NNW 22:25:01 10° NE
ARIANE 5 R/B 2.6 22:16:04 25° S 22:18:35 72° WSW 22:22:55 10° NNW
Meteor 1-19 Rocket 4.3 22:14:06 17° SSW 22:18:53 90° NNW 22:24:43 10° NNE
Cosmos 1340 Rocket 2.7 22:17:22 25° S 22:19:35 79° ESE 22:23:37 10° NNE
USA 281 4.4 22:14:24 12° SSW 22:19:39 31° WSW 22:25:25 10° NW
USA 59 Rocket -0.1 22:16:04 10° NW 22:19:43 80° NE 22:22:59 20° SE
NOSS 2-1 (E) 3.4 22:16:56 10° NW 22:20:34 81° NE 22:23:50 20° SE
MINOTAUR 4 R/B 3.4 22:18:16 10° NNE 22:21:16 86° ESE 22:22:21 36° SSW
Cosmos 1992 Rocket 4.3 22:17:07 10° NNW 22:22:21 63° ENE 22:25:48 21° SE
IRIDIUM 103 4.3 22:18:00 10° N 22:23:16 85° E 22:26:30 24° S
H-2A R/B 4.1 22:21:31 10° NE 22:24:15 16° E 22:25:53 13° ESE
CZ-2C R/B 3.6 22:19:55 10° NNE 22:24:31 85° ESE 22:27:22 22° SSW
Cosmos 1697 Rocket 4.1 22:20:11 10° NNW 22:25:18 34° NE 22:30:23 10° ESE
Cosmos 1726 4.3 22:27:22 10° NW 22:29:04 14° W 22:30:45 10° WSW
Cosmos 1766 4.1 22:25:39 10° N 22:29:10 37° ENE 22:30:52 24° ESE
Cosmos 1980 Rocket 4.2 22:25:49 10° NNW 22:30:28 24° NE 22:35:04 10° E
Cosmos 2195 Rocket 4.4 22:27:33 22° S 22:31:40 74° E 22:37:46 10° NNE
NOSS 2-1 (D) 3.3 22:28:33 10° NW 22:32:12 81° SW 22:34:55 24° SE
Cosmos 1470 4.5 22:29:56 10° NNE 22:32:56 22° ENE 22:34:54 15° ESE
Nadezhda 4 Rocket 4.1 22:30:38 16° SSW 22:35:39 72° WNW 22:41:56 10° N
Cosmos 1805 3.4 22:34:53 10° NNW 22:38:33 59° W 22:40:09 30° SSW
IRIDIUM 106 4.5 22:36:21 10° N 22:41:34 71° W 22:44:45 24° S
Spot 2 4.3 22:50:57 29° S 22:53:17 79° WSW 22:58:09 10° NNW
Cosmos 1975 3.2 22:51:37 10° NNW 22:55:28 52° W 22:57:09 29° SSW
Cosmos 1340 4.3 22:58:17 10° NW 23:00:55 21° W 23:02:14 17° WSW
Lacrosse 5 rocket 2.3 22:56:47 10° W 23:00:56 50° N 23:04:57 10° ENE
SL-16 R/B 4.4 22:56:52 10° W 23:01:33 26° NW 23:06:17 10° NNE
Cosmos 1603 4.0 22:57:29 10° SW 23:03:05 67° NW 23:08:49 10° NNE
Cosmos 1626 1.6 23:04:41 45° S 23:05:34 89° WSW 23:08:50 10° N
USA 267 3.5 22:59:51 10° ENE 23:06:08 47° SE 23:10:42 19° SSW
Cosmos 1269 Rocket 4.5 23:04:35 27° SSE 23:06:59 45° ESE 23:12:00 10° NE
NOSS 2-1 (C) 3.9 23:03:47 10° WNW 23:07:24 47° SW 23:09:08 31° S
Cosmos 1674 3.3 23:07:50 31° SE 23:08:42 36° E 23:11:57 10° NNE
PSLV R/B 4.1 23:07:35 10° NNE 23:12:05 48° E 23:13:59 30° SSE
NOSS 3-4 (A) 4.2 23:08:08 10° NW 23:14:33 61° NNE 23:22:02 10° ESE
NOSS 3-4 (C) 4.2 23:08:11 10° NW 23:14:36 60° NNE 23:22:04 10° ESE
USA 306 3.6 23:11:58 10° W 23:15:15 29° SW 23:15:15 29° SW
Cosmos 2026 Rocket 4.2 23:12:23 21° SSW 23:16:49 68° WNW 23:23:06 10° N
Cosmos 1833 Rocket 3.7 23:17:10 23° SSE 23:19:30 31° ESE 23:24:24 10° NE
Cosmos 44 Rocket 3.9 23:16:20 10° NW 23:21:19 58° NE 23:26:06 10° ESE
S3M 4.2 23:17:53 10° N 23:24:15 68° ENE 23:28:27 23° SSE
NOSS 3-3 (C) 4.3 23:26:07 27° S 23:28:36 42° ESE 23:34:37 10° NE
SL-24 R/B 4.2 23:24:56 10° NNE 23:29:20 72° ESE 23:31:32 31° S
Cosmos 220 Rocket 4.0 23:30:05 28° SSW 23:32:20 79° WNW 23:36:42 10° NNE
Cosmos 1515 Rocket 3.5 23:31:37 33° S 23:33:31 83° E 23:37:52 10° NNE
GP-B 3.8 23:29:31 10° NNE 23:33:47 45° E 23:35:54 26° SE
Cosmos 1328 Rocket 4.2 23:33:10 24° SW 23:35:31 49° WNW 23:39:45 10° N
Cosmos 1553 Rocket 4.1 23:30:09 10° NNW 23:36:10 62° W 23:39:39 26° SSW
SL-8 R/B 3.8 23:32:30 10° WSW 23:37:04 48° S 23:41:40 10° E
ALOS 2 3.5 23:36:13 26° SW 23:38:01 37° W 23:42:07 10° NNW
Cosmos 1470 Rocket 4.2 23:35:37 10° NNW 23:39:52 44° W 23:41:47 28° SSW
H-2A R/B 4.4 23:38:30 15° WSW 23:40:14 19° W 23:43:14 10° NW
Cosmos 1869 Rocket 3.7 23:36:29 10° N 23:40:50 68° ENE 23:42:58 29° SSE
Cosmos 1733 Rocket 4.5 23:39:59 10° N 23:43:52 31° ENE 23:46:57 14° SE
USA 234 3.3 23:38:50 14° SE 23:44:29 58° SW 23:50:57 10° WNW
Lacrosse 4 Rocket 1.8 23:41:32 10° NW 23:45:23 42° WSW 23:46:28 34° SSW
NOSS 8 (A) 4.3 23:46:21 31° SW 23:47:54 83° NW 23:50:54 10° NE
APEX 3.2 23:57:40 30° ENE 23:57:40 30° ENE 23:59:07 10° NE
